Location: Błonie
(52.1971°N, 20.6200°E)
Time: 15:09:04
(UTC+01:00)

ISS - Pass Details

Date: 27 January 2019
Orbit: 403 x 411 km, 51.6° (Epoch: 16 February)

Event Time Altitude Azimuth Distance (km) Brightness Sun altitude
Rises 16:47:49 0° 210° (SSW) 2,323 1.0 -5.3°
Reaches altitude 10° 16:50:16 10° 191° (SSW) 1,468 -0.5 -5.7°
Maximum altitude 16:52:40 19° 145° (SE) 1,052 -1.8 -6.0°
Drops below altitude 10° 16:55:05 10° 98° (E) 1,478 -1.5 -6.4°
Enters shadow 16:55:50 - 90° (E) 1,717 -1.2 -6.5°
